Location: Cueva de Ratón
(10.1013°N, 67.6606°W)
Time: 02:51:54
(UTC+00:00)

JB-3 - Pass Details

Date: 02 December 2023
Orbit: 513 x 567 km, 97.2° (Epoch: 20 February)

Event Time Altitude Azimuth Distance (km) Brightness Sun altitude
Rises 22:19:54 0° 16° (NNE) 2,650 7.4 -3.7°
Reaches altitude 10° 22:22:02 10° 19° (NNE) 1,754 6.5 -4.2°
Maximum altitude 22:25:46 62° 101° (E) 584 4.2 -5.1°
Drops below altitude 10° 22:29:27 10° 182° (S) 1,734 7.2 -5.9°
Sets 22:31:33 0° 185° (S) 2,617 8.2 -6.4°
